Weather in Slobozia

Moldova     46°44′35″N   29°41′43″E
temp.,
°C
wind,
m/s
gust,
m/s
humid.,
%
clouds,
%
prec.,
mm/h
press.,
hPa
HPBL,
m
8 december, wed
wed823:00+10ne2398100 1.2 100479
02:00+10ene4896100 2.3 1003383
05:00+9ne5995100 2.9 1002305
08:00+9nne51091100 5.5 1003546
11:00+9nne4689100 0.6 1003421
14:00+8nnw4693100 4.3 1003384
17:00+6nnw71089100 1.3 1005393
20:00+5nw61086100 1.9 1007398
9 december, thu
thu923:00+5nw61086100 0.3 1009397
02:00+4nw5984100 0.3 1010367
05:00+4nw478295 0.0 1011324
08:00+4wnw358588 0.0 1013236
11:00+6wnw457483 0.0 1015414
14:00+7w22715 0.0 1014408
17:00+6se22795 0.0 101513
20:00+5sse34840 0.0 101671
10 december, fri
fri1023:00+4ese389357 0.0 1015165
02:00+7ese51195100 0.0 1014270
05:00+9se71491100 0.1 1013523
08:00+10sse81582100 0.1 1013624
11:00+12sse81682100 0.0 1012748
14:00+14sse9167173 0.0 10111142
17:00+11se101872100 0.0 1011696
20:00+12sse9177391 0.1 1011699
11 december, sat
sat1123:00+12sse81872100 0.1 1011975
02:00+11sse81387100 0.3 1011633
05:00+10s6118061 0.7 1012471
08:00+8sse48945 1.1 1014222
11:00+11s467296 0.0 1016515
14:00+12sse4664100 0.0 1016740
17:00+10se4981100 0.0 1017301
20:00+9se41189100 0.0 1019279
12 december, sun
sun1223:00+10se71585100 0.0 1019497
02:00+10se61485100 0.0 1019451
05:00+10ese61480100 0.0 1018417
08:00+9ese71580100 0.0 1017461
11:00+9ese71474100 0.0 1016539
14:00+10ese81470100 0.0 1014625
17:00+9ese71378100 0.0 1014530
20:00+8ese71385100 0.0 1014415